Weather History for KFLL - April, 2014

Change the Weather History Date:

Saturday, April 5, 2014

  Actual Average Record
Temperature  
Mean Temperature 78 °F 75 °F  
Max Temperature 84 °F 82 °F 92 °F (2011)
Min Temperature 72 °F 68 °F 43 °F (1915)
Degree Days  
Heating Degree Days 0 0  
Month to date heating degree days 0 0  
Since 1 July heating degree days 81 111  
Cooling Degree Days 13 10  
Month to date cooling degree days 53 50  
Year to date cooling degree days 713 660  
Growing Degree Days 28 (Base 50)    
Moisture  
Dew Point 68 °F    
Average Humidity 74    
Maximum Humidity 93    
Minimum Humidity 55    
Precipitation  
Precipitation 0.00 in 0.12 in 2.00 in (1950)
Month to date precipitation 0.00 0.60  
Year to date precipitation 8.17 10.55  
Snow  
Snow 0.00 in - - ()
Month to date snowfall 0.0  
Since 1 July snowfall 0.0  
Snow Depth 0.00 in    
Sea Level Pressure  
Sea Level Pressure 30.02 in    
Wind  
Wind Speed 8 mph (SSE)    
Max Wind Speed 17 mph    
Max Gust Speed 22 mph    
Visibility 10 miles    
Events      
T = Trace of Precipitation, MM = Missing Value Source: NWS Daily Summary

Daily Weather History Graph

Daily Weather History Graph

Search for Another Location

Airport or City:

Trip Planner

Search our weather history database for the weather conditions in past years. The results will help you decide how hot, cold, wet, or windy it might be!

Date:

Astronomy

Apr. 05, 2014 Rise Set
Actual Time 7:07 AM EDT 7:39 PM EDT
Civil Twilight 6:44 AM EDT 8:02 PM EDT
Nautical Twilight 6:17 AM EDT 8:29 PM EDT
Astronomical Twilight 5:49 AM EDT 8:57 PM EDT
Moon 11:33 AM EDT 12:28 AM EDT
Length of Visible Light 13h 18m
Length of Day
12h 31m
Waxing Crescent, 34% of the Moon is Illuminated
Apr 5
Waxing Crescent
Apr 7
First Quarter
Apr 15
Full
Apr 22
Last Quarter
Apr 29
New

Hourly Weather History & Observations

Time (EDT) Temp. Heat Index Dew Point Humidity Pressure Visibility Wind Dir Wind Speed Gust Speed Precip Events Conditions
12:53 AM 75.0 °F - 69.1 °F 82% 30.04 in 10.0 mi SSE 6.9 mph - N/A   Partly Cloudy
1:53 AM 75.0 °F - 69.1 °F 82% 30.02 in 10.0 mi South 3.5 mph - N/A   Mostly Cloudy
2:53 AM 73.9 °F - 68.0 °F 82% 30.01 in 10.0 mi South 3.5 mph - N/A   Partly Cloudy
3:53 AM 72.0 °F - 69.1 °F 91% 29.99 in 10.0 mi SW 4.6 mph - N/A   Partly Cloudy
4:53 AM 73.0 °F - 69.1 °F 87% 29.99 in 10.0 mi Calm Calm - N/A   Partly Cloudy
5:53 AM 72.0 °F - 69.1 °F 91% 29.99 in 10.0 mi SSW 3.5 mph - N/A   Partly Cloudy
6:53 AM 72.0 °F - 68.0 °F 87% 30.01 in 10.0 mi SW 4.6 mph - N/A   Partly Cloudy
7:53 AM 73.0 °F - 68.0 °F 84% 30.03 in 10.0 mi SW 3.5 mph - N/A   Partly Cloudy
8:53 AM 77.0 °F - 70.0 °F 79% 30.04 in 10.0 mi Variable 3.5 mph - N/A   Partly Cloudy
9:53 AM 79.0 °F - 68.0 °F 69% 30.05 in 10.0 mi SSW 5.8 mph - N/A   Scattered Clouds
10:53 AM 81.0 °F 83.3 °F 66.9 °F 62% 30.05 in 10.0 mi SE 8.1 mph - N/A   Mostly Cloudy
11:53 AM 82.9 °F 85.8 °F 68.0 °F 60% 30.06 in 10.0 mi ESE 12.7 mph - N/A   Scattered Clouds
12:53 PM 84.0 °F 86.5 °F 66.9 °F 56% 30.05 in 10.0 mi SE 13.8 mph - N/A   Partly Cloudy
1:53 PM 82.0 °F 84.1 °F 66.0 °F 58% 30.03 in 10.0 mi SE 15.0 mph - N/A   Partly Cloudy
2:53 PM 84.0 °F 87.8 °F 69.1 °F 61% 30.02 in 10.0 mi ESE 15.0 mph 20.7 mph N/A   Partly Cloudy
3:53 PM 82.0 °F 84.9 °F 68.0 °F 62% 30.01 in 10.0 mi SE 13.8 mph 20.7 mph N/A   Scattered Clouds
4:53 PM 82.0 °F 84.5 °F 66.9 °F 60% 30.00 in 10.0 mi SE 15.0 mph - N/A   Scattered Clouds
5:53 PM 81.0 °F 84.4 °F 70.0 °F 69% 30.00 in 10.0 mi SE 15.0 mph - N/A   Scattered Clouds
6:53 PM 80.1 °F 82.7 °F 68.0 °F 67% 30.00 in 10.0 mi SE 11.5 mph - N/A   Partly Cloudy
7:53 PM 78.1 °F - 69.1 °F 74% 30.00 in 10.0 mi SE 9.2 mph - N/A   Partly Cloudy
8:53 PM 78.1 °F - 70.0 °F 76% 30.01 in 10.0 mi SE 10.4 mph - N/A   Scattered Clouds
9:53 PM 77.0 °F - 70.0 °F 79% 30.04 in 10.0 mi SSE 6.9 mph - N/A   Scattered Clouds
10:53 PM 77.0 °F - 69.1 °F 76% 30.04 in 10.0 mi SSE 4.6 mph - N/A   Scattered Clouds
11:53 PM 75.9 °F - 68.0 °F 76% 30.04 in 10.0 mi SE 3.5 mph - N/A   Clear